Location: East Horndon
(51.5667°N, 0.3500°E)
Time: 23:15:00
(UTC+00:00)

SJ 16-02 - Pass Details

Date: 08 November 2025
Orbit: 585 x 594 km, 75.0° (Epoch: 04 December)

Event Time Altitude Azimuth Distance (km) Brightness Sun altitude
Exits shadow 06:01:38 - 335° (NNW) 2,692 4.3 -10.0°
Reaches altitude 10° 06:03:30 10° 333° (NNW) 1,938 3.5 -9.8°
Maximum altitude 06:07:48 72° 251° (WSW) 626 1.2 -9.1°
Drops below altitude 10° 06:12:03 10° 166° (SSE) 1,916 4.3 -8.5°
Sets 06:14:16 0° 165° (SSE) 2,810 5.2 -8.2°
